FW9743 Weather Reports


Display with metric or nautical units.
time (UTC)temp
F
wind
direction
speed
MPH
gust
MPH
rain 1hr
in
rain 24hr
in
rain mn
in
humidity
%
barometer
mb
20260507233046 58 0 0.0 0.0 0.00 0.00 0.00 87 1014.9
20260507231550 58 0 0.0 0.0 0.00 0.00 0.00 87 1014.9
20260507230052 59 0 0.0 0.0 0.00 0.00 0.00 86 1014.8
20260507224551 59 0 0.0 0.0 0.00 0.00 0.00 86 1015.0
20260507223048 59 0 0.0 0.0 0.00 0.00 0.00 86 1015.0
20260507221544 59 0 0.0 0.0 0.00 0.00 0.00 87 1015.0
20260507220051 60 0 0.0 4.0 0.00 0.00 0.00 86 1014.9
20260507214548 60 0 0.0 0.0 0.00 0.00 0.00 87 1014.8
20260507213054 59 0 0.0 0.0 0.00 0.00 0.00 88 1014.8
20260507211553 59 0 0.0 0.0 0.00 0.00 0.00 89 1014.7
20260507210046 59 0 0.0 0.0 0.00 0.00 0.00 89 1014.7
20260507204549 60 0 0.0 0.0 0.00 0.00 0.00 88 1014.7
20260507203044 60 0 0.0 2.0 0.00 0.00 0.00 87 1014.5
20260507201550 59 217 0.0 3.0 0.00 0.00 0.00 88 1014.4
20260507200046 60 0 0.0 0.0 0.00 0.00 0.00 85 1014.3
20260507194551 61 0 0.0 0.0 0.00 0.00 0.00 85 1014.2
20260507193045 61 0 0.0 3.0 0.00 0.00 0.00 84 1014.1
20260507191544 62 195 2.0 3.0 0.00 0.00 0.00 83 1014.1
20260507190051 63 0 0.0 2.0 0.00 0.00 0.00 81 1014.0
20260507184548 63 238 1.0 4.0 0.00 0.00 0.00 80 1014.0
20260507183055 63 247 2.0 5.0 0.00 0.00 0.00 80 1014.0
20260507181548 64 211 4.0 11.0 0.00 0.00 0.00 78 1014.1
20260507180053 65 213 4.0 10.0 0.00 0.00 0.00 74 1014.0
20260507174549 66 200 3.0 7.0 0.00 0.00 0.00 73 1013.8
20260507173058 66 201 1.0 5.0 0.00 0.00 0.00 72 1013.5
20260507171556 67 253 2.0 8.0 0.00 0.00 0.00 70 1013.4
20260507170052 68 277 3.0 7.0 0.00 0.00 0.00 65 1013.4
20260507164550 69 263 2.0 9.0 0.00 0.00 0.00 62 1013.3
20260507163056 69 217 4.0 9.0 0.00 0.00 0.00 61 1013.1
20260507161555 70 248 5.0 11.0 0.00 0.00 0.00 60 1013.0
20260507160051 71 273 4.0 10.0 0.00 0.00 0.00 60 1012.9
20260507154555 71 224 4.0 14.0 0.00 0.00 0.00 60 1013.1
20260507153105 73 275 5.0 10.0 0.00 0.00 0.00 58 1012.9
20260507151551 71 213 4.0 11.0 0.00 0.00 0.00 60 1012.9
20260507150058 72 229 3.0 7.0 0.00 0.00 0.00 61 1012.9
20260507144553 71 279 2.0 8.0 0.00 0.00 0.00 62 1013.1
20260507143104 0 6.0 9.0 0.00 0.00 0.00 62 1013.1
20260507141549 0 0.0 0.0 0.00 0.00 0.00 1013.2
20260507140056 0 0.0 0.0 0.00 0.00 0.00 1013.3
20260507134555 0 0.0 0.0 0.00 0.00 0.00 1013.4
20260507133056 0 0.0 0.0 0.00 0.00 0.00 1013.5
20260507131551 72 185 1.0 3.0 0.00 0.00 0.00 55 1013.5
20260507124555 71 211 1.0 9.0 0.00 0.00 0.00 56 1013.6
20260507123051 70 153 4.0 6.0 0.00 0.00 0.00 56 1014.0
20260507121555 67 5.0 7.0 0.00 0.00 0.00 58 1013.9
20260507120052 67 161 5.0 11.0 0.00 0.00 0.00 58 1014.1
20260507114550 0 6.0 0.0 0.00 0.00 0.00 1014.0
20260507113052 0 0.0 0.0 0.00 0.00 0.00 1014.1
20260507111544 0 0.0 0.0 0.00 0.00 0.00 1014.0
20260507110058 0 0.0 0.0 0.00 0.00 0.00 1014.2
20260507104552 0 198 2.0 2.0 0.00 0.00 0.00 1014.2
20260507103114 0 0.0 0.0 0.00 0.00 0.00 1014.3
20260507101546 69 107 5.0 10.0 0.00 0.00 0.00 63 1014.2
20260507100103 68 179 2.0 9.0 0.00 0.00 0.00 61 1014.4
20260507094551 0 159 6.0 6.0 0.00 0.00 0.00 1014.4
20260507093050 0 0.0 0.0 0.00 0.00 0.00 1014.5
20260507091549 66 138 3.0 8.0 0.00 0.00 0.00 69 1014.4
20260507090057 65 142 7.0 10.0 0.00 0.00 0.00 72 1014.4
20260507084603 64 103 6.0 9.0 0.00 0.00 0.00 75 1014.3
20260507083052 64 4.0 4.0 0.00 0.00 0.00 76 1014.4
20260507081559 64 142 6.0 7.0 0.00 0.00 0.00 75 1014.5
20260507080057 64 157 5.0 11.0 0.00 0.00 0.00 75 1014.5
20260507074552 64 144 6.0 10.0 0.00 0.00 0.00 76 1014.4
20260507073051 63 146 5.0 7.0 0.00 0.00 0.00 77 1014.3
20260507071550 64 157 5.0 9.0 0.00 0.00 0.00 77 1014.4
20260507070103 64 165 3.0 7.0 0.00 0.00 0.00 78 1014.3
20260507064555 63 111 1.0 4.0 0.00 0.00 0.00 81 1014.2
20260507063051 62 157 0.0 3.0 0.00 0.00 0.00 83 1014.3
20260507061547 61 0 0.0 2.0 0.00 0.00 0.00 86 1014.3
20260507060045 62 159 2.0 15.0 0.00 0.00 0.00 86 1014.3
20260507054605 61 0 0.0 3.0 0.00 0.00 0.00 84 1014.0
20260507053058 61 0 0.0 3.0 0.00 0.00 0.00 83 1013.8
20260507051556 61 233 0.0 4.0 0.00 0.00 0.00 86 1013.7
20260507050053 61 240 1.0 4.0 0.00 0.00 0.00 89 1013.8
20260507044556 60 172 2.0 6.0 0.00 0.00 0.00 89 1013.5
20260507043052 60 182 2.0 6.0 0.00 0.00 0.00 88 1013.6
20260507041601 60 167 3.0 8.0 0.00 0.00 0.00 88 1013.5
20260507040053 60 155 3.0 6.0 0.00 0.00 0.00 86 1013.1
20260507034545 60 0 0.0 2.0 0.00 0.00 0.00 86 1012.9
20260507033048 60 0 0.0 1.0 0.00 0.00 0.00 86 1012.9
20260507031554 61 0 1.0 5.0 0.00 0.00 0.00 85 1012.8
20260507030051 61 0 0.0 3.0 0.00 0.00 0.00 85 1012.6
20260507024553 61 196 1.0 3.0 0.00 0.00 0.00 84 1012.6
20260507023051 61 0 1.0 3.0 0.00 0.00 0.00 83 1012.3
20260507021600 61 234 1.0 4.0 0.00 0.00 0.00 83 1012.1
20260507020107 62 243 1.0 6.0 0.00 0.00 0.00 82 1012.1
20260507014618 62 265 1.0 7.0 0.00 0.00 0.00 81 1012.1
20260507013051 62 276 0.0 6.0 0.00 0.00 0.00 81 1012.1
20260507011558 62 217 1.0 4.0 0.00 0.00 0.00 81 1011.9
20260507010050 61 222 1.0 4.0 0.00 0.00 0.00 82 1011.8
20260507004550 61 132 1.0 2.0 0.00 0.00 0.00 80 1011.9
20260507003049 61 132 1.0 2.0 0.00 0.00 0.00 79 1011.9
20260507001601 63 200 0.0 3.0 0.00 0.00 0.00 77 1011.8
20260507000118 63 246 1.0 3.0 0.00 0.00 0.00 76 1011.7
20260506234610 63 234 0.0 2.0 0.00 0.00 0.00 75 1011.8